sat.trackr.live / text

‹ back to catalog

STARLINK-36945

NORAD 68050 · 2026-041L

PAYLOAD ACTIVE UNKNOWN

§ Identity

Operator
Country
US
Launch date
2026-03-02
Launch site
AFETR
Launch vehicle
Mass (kg)
RCS (m²)

Purposes: comms

External: N2YO · Heavens-Above · Gunter

§ Orbital elements

Epoch: 2026-05-25T03:12:20.411712Z

Period
93.85 min
Inclination
53.1601°
Eccentricity
0.0001339
Mean motion
15.34398319 rev/d
Perigee alt
461.8 km
Apogee alt
463.6 km
Semi-major
6,840.8 km
B*
9.6502e-4
RAAN
53.2740°
Arg perigee
73.0516°
Mean anomaly
287.0634°
Rev number
1,311

§ Raw data

STARLINK-369451 68050U 26041L   26145.13356958  .00032368  00000+0  96502-3 0  99962 68050  53.1601  53.2740 0001339  73.0516 287.0634 15.34398319 13118

JSON: /api/v1/satellites/68050 · /tle

For live sub-satellite position, see the globe view (requires WebGL).

§ Visibility from observer

Set your observer location to see the next 7 days of passes ≥ 10°. The values pass through the URL so the page stays shareable.

No JS? Fill the form by hand. The geolocation button needs JavaScript.